FW4226 Weather Reports


Display with metric or nautical units.
time (UTC)temp
F
wind
direction
speed
MPH
gust
MPH
rain 1hr
in
rain 24hr
in
rain mn
in
humidity
%
barometer
mb
20260506042458 44 353 0.0 2.0 0.00 0.00 0.00 85 1013.6
20260506041458 45 310 1.0 4.0 0.00 0.00 0.00 85 1013.6
20260506040958 45 353 1.0 4.0 0.00 0.00 0.00 85 1013.7
20260506040458 45 318 1.0 4.0 0.00 0.00 0.00 85 1013.7
20260506040003 45 358 1.0 3.0 0.00 0.00 0.00 84 1013.7
20260506035457 45 9 1.0 5.0 0.00 0.00 0.00 85 1013.6
20260506034959 45 26 1.0 5.0 0.00 0.00 0.00 84 1013.7
20260506034000 45 16 1.0 2.0 0.00 0.00 0.00 84 1013.7
20260506033458 45 22 1.0 4.0 0.00 0.00 0.00 84 1013.7
20260506032958 45 351 1.0 4.0 0.00 0.00 0.00 84 1013.6
20260506032459 45 351 1.0 4.0 0.00 0.00 0.00 84 1013.7
20260506031959 45 19 0.0 4.0 0.00 0.00 0.00 84 1013.7
20260506031457 45 66 0.0 3.0 0.00 0.00 0.00 84 1013.6
20260506030959 45 8 1.0 4.0 0.00 0.00 0.00 84 1013.7
20260506030458 45 9 1.0 4.0 0.00 0.00 0.00 84 1013.8
20260506030004 46 306 0.0 3.0 0.00 0.00 0.00 84 1013.9
20260506025457 46 356 1.0 3.0 0.00 0.00 0.00 84 1013.8
20260506024000 46 358 0.0 2.0 0.00 0.00 0.00 84 1013.8
20260506023459 46 313 0.0 1.0 0.00 0.00 0.00 84 1013.8
20260506022459 46 8 0.0 3.0 0.00 0.00 0.00 84 1013.8
20260506021959 46 27 1.0 2.0 0.00 0.00 0.00 84 1013.9
20260506021500 46 335 1.0 2.0 0.00 0.00 0.00 84 1014.0
20260506020457 46 18 0.0 0.0 0.00 0.00 0.00 85 1013.9
20260506020001 47 19 1.0 4.0 0.00 0.00 0.00 85 1013.8
20260506015456 47 10 1.0 4.0 0.00 0.00 0.00 85 1013.9
20260506014959 47 24 1.0 4.0 0.00 0.00 0.00 85 1013.8
20260506014456 47 344 1.0 4.0 0.00 0.00 0.00 85 1013.8
20260506013957 47 346 1.0 4.0 0.00 0.00 0.00 85 1013.9
20260506013457 47 30 1.0 4.0 0.00 0.00 0.00 85 1013.9
20260506013000 47 358 1.0 4.0 0.00 0.00 0.00 85 1014.0
20260506012457 47 326 1.0 4.0 0.00 0.00 0.00 84 1014.0
20260506011456 47 280 1.0 6.0 0.00 0.00 0.00 84 1014.0
20260506010957 47 358 0.0 3.0 0.00 0.00 0.00 84 1014.0
20260506010001 47 15 1.0 3.0 0.00 0.00 0.00 84 1013.9
20260506005457 47 325 0.0 3.0 0.00 0.00 0.00 84 1013.9
20260506004957 47 12 0.0 1.0 0.00 0.00 0.00 85 1013.9
20260506004457 48 12 0.0 1.0 0.00 0.00 0.00 85 1013.9
20260506003457 48 359 1.0 3.0 0.00 0.00 0.00 85 1013.9
20260506002957 48 4 0.0 6.0 0.00 0.00 0.00 85 1013.9
20260506002000 48 337 0.0 1.0 0.00 0.00 0.00 85 1013.9
20260506001457 48 322 0.0 2.0 0.00 0.00 0.00 85 1014.0
20260506000957 48 26 1.0 6.0 0.00 0.00 0.00 85 1014.0
20260506000457 48 354 1.0 6.0 0.00 0.00 0.00 85 1014.0
20260505235457 48 36 1.0 3.0 0.00 0.00 0.00 85 1014.0
20260505234959 48 32 1.0 5.0 0.00 0.00 0.00 85 1014.0
20260505234457 48 6 0.0 5.0 0.00 0.00 0.00 85 1014.1
20260505233957 48 359 0.0 1.0 0.00 0.00 0.00 85 1014.1
20260505233500 48 335 0.0 1.0 0.00 0.00 0.00 85 1014.2
20260505232502 48 328 0.0 2.0 0.00 0.00 0.00 84 1014.0
20260505232001 49 346 0.0 2.0 0.00 0.00 0.00 84 1014.0
20260505231501 49 339 0.0 1.0 0.00 0.00 0.00 84 1014.1
20260505231001 49 75 0.0 0.0 0.00 0.00 0.00 83 1014.1
20260505230501 49 75 0.0 2.0 0.00 0.00 0.00 83 1014.2
20260505230006 49 75 0.0 3.0 0.00 0.00 0.00 83 1014.2
20260505225501 49 289 1.0 5.0 0.00 0.00 0.00 83 1014.2
20260505224000 49 26 1.0 6.0 0.00 0.00 0.00 82 1014.2
20260505223501 49 354 1.0 6.0 0.00 0.00 0.00 81 1014.1
20260505223001 50 325 0.0 4.0 0.00 0.00 0.00 81 1014.2
20260505222501 50 24 1.0 3.0 0.00 0.00 0.00 80 1014.2
20260505222003 50 293 1.0 3.0 0.00 0.00 0.00 80 1014.3
20260505221501 50 235 1.0 4.0 0.00 0.00 0.00 80 1014.2
20260505221001 50 326 2.0 6.0 0.00 0.00 0.00 80 1014.2
20260505220501 50 324 2.0 7.0 0.00 0.00 0.00 79 1014.2
20260505215501 51 310 3.0 8.0 0.00 0.00 0.00 79 1014.0
20260505214501 51 67 2.0 7.0 0.00 0.00 0.00 79 1014.0
20260505214001 51 3 1.0 6.0 0.00 0.00 0.00 79 1013.9
20260505213500 51 278 1.0 5.0 0.00 0.00 0.00 79 1013.8
20260505213001 51 347 1.0 4.0 0.00 0.00 0.00 79 1013.7
20260505212501 51 39 1.0 5.0 0.00 0.00 0.00 78 1013.6
20260505212001 52 268 1.0 6.0 0.00 0.00 0.00 78 1013.7
20260505211501 52 29 1.0 6.0 0.00 0.00 0.00 78 1013.6
20260505210501 52 320 1.0 4.0 0.00 0.00 0.00 77 1013.6
20260505205503 53 244 1.0 5.0 0.00 0.00 0.00 76 1013.6
20260505205001 53 290 1.0 5.0 0.00 0.00 0.00 77 1013.6
20260505204500 53 50 2.0 5.0 0.00 0.00 0.00 77 1013.5
20260505203501 53 32 1.0 5.0 0.00 0.00 0.00 77 1013.4
20260505203002 53 303 1.0 5.0 0.00 0.00 0.00 77 1013.4
20260505202501 54 356 1.0 3.0 0.00 0.00 0.00 78 1013.4
20260505201501 54 348 1.0 6.0 0.00 0.00 0.00 77 1013.3
20260505201001 54 36 0.0 6.0 0.00 0.00 0.00 77 1013.2
20260505200500 54 38 1.0 2.0 0.00 0.00 0.00 78 1013.2
20260505200002 54 330 1.0 5.0 0.00 0.00 0.00 78 1013.2
20260505195502 54 36 1.0 5.0 0.00 0.00 0.00 78 1013.2
20260505195015 54 346 1.0 3.0 0.00 0.00 0.00 78 1013.2
20260505194504 54 358 1.0 5.0 0.00 0.00 0.00 78 1013.0
20260505194001 54 117 1.0 3.0 0.00 0.00 0.00 78 1013.0
20260505193001 55 332 0.0 5.0 0.00 0.00 0.00 78 1012.9
20260505192501 55 36 0.0 2.0 0.00 0.00 0.00 78 1012.8
20260505191501 55 13 1.0 4.0 0.00 0.00 0.00 77 1012.7
20260505191000 55 355 1.0 4.0 0.00 0.00 0.00 77 1012.8
20260505190501 55 41 1.0 6.0 0.00 0.00 0.00 76 1012.7
20260505190007 56 343 1.0 5.0 0.00 0.00 0.00 76 1012.7
20260505185501 56 353 1.0 4.0 0.00 0.00 0.00 75 1012.7
20260505185001 56 336 1.0 5.0 0.00 0.00 0.00 75 1012.7
20260505184500 56 12 1.0 5.0 0.00 0.00 0.00 74 1012.6
20260505183500 57 305 1.0 5.0 0.00 0.00 0.00 72 1012.5
20260505183000 57 10 1.0 5.0 0.00 0.00 0.00 72 1012.4
20260505182500 57 26 1.0 3.0 0.00 0.00 0.00 72 1012.4
20260505182001 57 341 1.0 4.0 0.00 0.00 0.00 72 1012.4
20260505181500 57 292 1.0 3.0 0.00 0.00 0.00 72 1012.4
20260505181001 57 330 1.0 6.0 0.00 0.00 0.00 72 1012.4
20260505180500 57 322 2.0 6.0 0.00 0.00 0.00 72 1012.4
20260505180008 57 308 1.0 5.0 0.00 0.00 0.00 72 1012.4
20260505175501 57 56 1.0 4.0 0.00 0.00 0.00 73 1012.5
20260505174501 57 5 0.0 3.0 0.00 0.00 0.00 74 1012.4
20260505174002 57 25 0.0 5.0 0.00 0.00 0.00 73 1012.5
20260505173500 57 343 0.0 1.0 0.00 0.00 0.00 74 1012.4
20260505172501 57 333 1.0 2.0 0.00 0.00 0.00 73 1012.5
20260505172002 57 302 1.0 5.0 0.00 0.00 0.00 73 1012.5
20260505171459 57 323 0.0 5.0 0.00 0.00 0.00 73 1012.6
20260505171007 57 329 0.0 2.0 0.00 0.00 0.00 74 1012.5
20260505170501 57 22 1.0 3.0 0.00 0.00 0.00 73 1012.6
20260505170006 57 306 0.0 3.0 0.00 0.00 0.00 74 1012.6
20260505165500 57 356 0.0 2.0 0.00 0.00 0.00 74 1012.7
20260505165000 57 342 1.0 2.0 0.00 0.00 0.00 74 1012.6
20260505163500 57 30 0.0 3.0 0.00 0.00 0.00 73 1012.8
20260505163000 57 22 0.0 3.0 0.00 0.00 0.00 73 1012.7
20260505162500 57 27 0.0 2.0 0.00 0.00 0.00 72 1012.6
20260505162000 57 15 0.0 1.0 0.00 0.00 0.00 73 1012.6
20260505161459 57 36 0.0 1.0 0.00 0.00 0.00 73 1012.6
20260505161000 57 36 0.0 3.0 0.00 0.00 0.00 73 1012.6
20260505160500 57 12 0.0 3.0 0.00 0.00 0.00 73 1012.6
20260505153000 58 353 1.0 3.0 0.00 0.00 0.00 71 1012.7
20260505152500 58 48 1.0 3.0 0.00 0.00 0.00 71 1012.7
20260505152000 58 339 1.0 3.0 0.00 0.00 0.00 71 1012.7
20260505151000 58 29 2.0 7.0 0.00 0.00 0.00 72 1012.7
20260505150459 58 347 1.0 7.0 0.00 0.00 0.00 73 1012.8
20260505140500 59 313 1.0 6.0 0.00 0.00 0.00 72 1013.0
20260505124959 60 36 1.0 5.0 0.00 0.00 0.00 66 1013.1
20260505124459 60 322 1.0 5.0 0.00 0.00 0.00 68 1013.1
20260505124000 60 11 1.0 5.0 0.00 0.00 0.00 67 1013.1
20260505123459 60 288 1.0 6.0 0.00 0.00 0.00 68 1013.0
20260505123000 60 43 2.0 6.0 0.00 0.00 0.00 68 1013.1
20260505122459 60 306 1.0 6.0 0.00 0.00 0.00 69 1013.1
20260505121459 59 12 2.0 5.0 0.00 0.00 0.00 71 1013.2
20260505120959 59 289 2.0 5.0 0.00 0.00 0.00 71 1013.2
20260505120459 59 311 2.0 5.0 0.00 0.00 0.00 71 1013.1
20260505120006 59 7 2.0 6.0 0.00 0.00 0.00 71 1013.2
20260505115500 59 339 2.0 4.0 0.00 0.00 0.00 73 1013.3
20260505115000 59 17 2.0 5.0 0.00 0.00 0.00 71 1013.2
20260505114459 59 332 2.0 5.0 0.00 0.00 0.00 70 1013.2
20260505113959 59 332 1.0 5.0 0.00 0.00 0.00 72 1013.1
20260505113458 59 12 2.0 4.0 0.00 0.00 0.00 70 1013.2
20260505113000 59 6 1.0 5.0 0.00 0.00 0.00 70 1013.2
20260505112459 59 326 1.0 3.0 0.00 0.00 0.00 70 1013.3
20260505112000 59 322 1.0 3.0 0.00 0.00 0.00 71 1013.3
20260505111459 59 278 1.0 4.0 0.00 0.00 0.00 68 1013.3
20260505111000 58 69 1.0 4.0 0.00 0.00 0.00 68 1013.5
20260505110459 58 359 1.0 4.0 0.00 0.00 0.00 67 1013.4
20260505102000 59 301 1.0 4.0 0.00 0.00 0.00 74 1013.7
20260505101459 58 29 1.0 5.0 0.00 0.00 0.00 76 1013.6
20260505100959 57 333 2.0 5.0 0.00 0.00 0.00 74 1013.7
20260505100005 58 348 1.0 5.0 0.00 0.00 0.00 74 1013.7
20260505095500 57 297 1.0 8.0 0.00 0.00 0.00 76 1013.7
20260505094959 57 23 1.0 8.0 0.00 0.00 0.00 76 1013.8
20260505094500 56 38 1.0 5.0 0.00 0.00 0.00 76 1013.9
20260505094000 56 359 2.0 5.0 0.00 0.00 0.00 76 1013.9
20260505093500 56 23 2.0 8.0 0.00 0.00 0.00 77 1014.0
20260505093000 56 59 2.0 8.0 0.00 0.00 0.00 76 1014.0
20260505092459 56 73 1.0 4.0 0.00 0.00 0.00 78 1013.9
20260505092000 55 30 1.0 3.0 0.00 0.00 0.00 79 1014.0
20260505091458 55 52 1.0 3.0 0.00 0.00 0.00 81 1014.0
20260505090500 54 285 1.0 5.0 0.00 0.00 0.00 81 1014.0
20260505090004 54 19 2.0 4.0 0.00 0.00 0.00 82 1014.0
20260505085500 54 27 1.0 4.0 0.00 0.00 0.00 82 1014.1
20260505084959 54 29 1.0 4.0 0.00 0.00 0.00 81 1014.1
20260505084000 54 289 1.0 2.0 0.00 0.00 0.00 83 1014.2
20260505083458 53 359 1.0 2.0 0.00 0.00 0.00 84 1014.1
20260505083001 53 340 1.0 3.0 0.00 0.00 0.00 85 1014.2
20260505082459 53 2 1.0 3.0 0.00 0.00 0.00 84 1014.3
20260505082000 53 14 1.0 4.0 0.00 0.00 0.00 85 1014.3
20260505081500 53 16 2.0 4.0 0.00 0.00 0.00 85 1014.3
20260505080959 53 13 2.0 7.0 0.00 0.00 0.00 87 1014.2
20260505080459 52 40 2.0 4.0 0.00 0.00 0.00 88 1014.2
20260505074958 51 18 1.0 2.0 0.00 0.00 0.00 90 1014.2
20260505073958 50 40 2.0 5.0 0.00 0.00 0.00 91 1014.2
20260505073457 50 358 1.0 6.0 0.00 0.00 0.00 91 1014.2
20260505072958 50 26 0.0 3.0 0.00 0.00 0.00 92 1014.3
20260505071458 49 336 0.0 2.0 0.00 0.00 0.00 92 1014.3
20260505070958 49 336 0.0 2.0 0.00 0.00 0.00 93 1014.3
20260505070002 49 19 0.0 4.0 0.00 0.00 0.00 93 1014.3
20260505065458 49 23 0.0 4.0 0.00 0.00 0.00 93 1014.3
20260505064958 49 14 0.0 2.0 0.00 0.00 0.00 93 1014.2
20260505064459 49 38 0.0 2.0 0.00 0.00 0.00 94 1014.2
20260505063958 49 54 0.0 1.0 0.00 0.00 0.00 94 1014.3
20260505063457 49 54 0.0 1.0 0.00 0.00 0.00 94 1014.2
20260505062958 49 53 0.0 1.0 0.00 0.00 0.00 94 1014.2
20260505062458 49 348 0.0 0.0 0.00 0.00 0.00 94 1014.2
20260505061958 49 348 0.0 0.0 0.00 0.00 0.00 94 1014.3
20260505061458 48 348 0.0 1.0 0.00 0.00 0.00 95 1014.4
20260505060959 48 348 0.0 1.0 0.00 0.00 0.00 95 1014.3
20260505060458 48 349 0.0 1.0 0.00 0.00 0.00 95 1014.4
20260505060005 48 349 0.0 1.0 0.00 0.00 0.00 95 1014.3
20260505054958 47 349 0.0 0.0 0.00 0.00 0.00 95 1014.4
20260505052958 46 349 0.0 0.0 0.00 0.00 0.00 95 1014.4
20260505052459 46 349 0.0 0.0 0.00 0.00 0.00 95 1014.4
20260505051958 46 349 0.0 0.0 0.00 0.00 0.00 95 1014.3
20260505050958 46 349 0.0 0.0 0.00 0.00 0.00 95 1014.3
20260505050457 46 349 0.0 0.0 0.00 0.00 0.00 95 1014.3